Location: Melara
(45.0500°N, 11.1833°E)
Time: 21:23:24
(UTC+00:00)

AQUA - Pass Details

Date: 26 May 2022
Orbit: 701 x 703 km, 98.2° (Epoch: 04 July)

Event Time Altitude Azimuth Distance (km) Brightness Sun altitude
Rises 01:12:35 0° 14° (NNE) 3,102 8.6 -18.4°
Reaches altitude 10° 01:14:51 10° 16° (NNE) 2,179 7.5 -18.2°
Maximum altitude 01:19:38 78° 103° (ESE) 723 3.8 -17.8°
Enters shadow 01:22:03 29° 186° (S) 1,263 4.6 -17.5°
